Probability
0 0 0 0 0 0 0 0 0 0 0 0 0 0 0 0 0 0 0 0 0 0 0 0 0 0 0 0 0 0 0 0 0 0 0 0 0 0 0 0 0 1 0 0
0 0 0 0 0 0 0 0 0 0 0 0 0 0 0 0 0 0 0 0 0 0 0 0 0 0 0 0 0 0 0 0 0 0 0 0 0 0 0 0 1 1 0 0
0 0 0 0 0 0 0 0 0 0 0 0 0 0 0 0 0 0 0 0 0 0 0 0 0 0 0 0 0 0 0 0 0 0 0 0 0 0 0 0 1 1 0 0
0 0 0 0 0 0 0 0 0 0 0 0 0 0 0 0 0 0 0 0 0 0 0 0 0 0 0 0 0 0 0 0 0 0 0 0 0 0 0 0 0 0 0 0
0 0 0 0 0 0 0 0 0 0 0 0 0 0 0 0 0 0 0 0 0 0 0 0 0 0 0 0 0 0 0 0 0 0 0 0 0 0 0 0 0 0 1 1
0 0 0 0 0 0 0 0 0 0 0 0 0 0 0 0 0 0 0 0 0 0 0 0 0 0 0 0 0 0 0 0 0 0 0 0 0 0 0 0 0 0 0 0
0 0 0 0 0 0 0 0 0 0 0 0 0 0 0 0 0 0 0 0 0 0 0 0 0 0 0 0 0 0 0 0 0 0 0 0 0 0 0 0 0 0 0 0
0 0 0 0 0 0 0 0 0 0 0 0 0 0 0 0 0 0 0 0 0 0 0 0 0 0 0 0 0 0 0 0 0 0 0 0 0 0 0 0 0 0 0 0
0 0 0 0 0 0 0 0 0 0 0 0 0 0 0 0 0 0 0 0 0 0 0 0 0 0 0 0 0 0 0 0 0 0 0 0 0 0 0 0 0 0 0 0
0 0 0 0 0 0 0 0 0 0 0 0 0 0 0 0 0 0 0 0 0 0 0 0 0 0 0 0 0 0 0 0 0 0 0 0 0 0 0 0 0 0 0 0
0 0 0 0 0 0 0 0 0 0 0 0 0 0 0 0 0 0 0 0 0 0 0 0 0 0 0 0 0 0 0 0 0 0 0 0 0 0 0 0 0 0 0 0
0 0 0 0 0 0 0 0 0 0 0 0 0 0 0 0 0 0 0 0 0 0 0 0 0 0 0 0 0 0 0 0 0 0 0 0 0 0 0 0 0 0 0 0
0 0 0 0 0 0 0 0 0 0 0 0 0 0 0 0 0 0 0 0 0 0 0 0 0 0 0 0 0 0 0 0 0 0 0 0 0 0 1 1 0 0 0 0
0 0 0 0 0 0 0 0 0 0 0 0 0 0 0 0 0 0 0 0 0 0 0 0 0 0 0 0 0 0 0 0 0 0 0 0 0 0 1 1 0 0 0 0
0 0 0 0 0 0 0 0 0 0 0 0 0 0 0 0 0 0 0 0 0 0 0 0 0 0 0 0 0 0 0 0 0 0 0 0 0 0 1 1 0 0 0 0
0 0 0 0 0 0 0 0 0 0 0 0 0 0 0 0 0 0 0 0 0 0 0 0 0 0 0 0 0 0 0 0 0 0 0 0 0 0 0 0 0 0 0 0
0 0 0 0 0 0 0 0 0 0 0 0 0 0 0 0 0 0 0 0 0 0 0 0 0 0 0 0 0 0 0 0 0 0 0 0 0 0 0 0 0 0 0 0
0 0 0 0 0 0 0 0 0 0 0 0 0 0 0 0 0 0 0 0 0 0 0 0 0 0 0 0 0 0 0 0 0 0 0 0 0 0 0 0 0 0 0 0
0 0 0 0 0 0 0 0 0 0 0 0 0 0 0 0 0 0 0 0 0 0 0 0 0 0 0 0 0 0 0 0 0 0 0 0 0 0 0 0 0 0 0 0
0 0 0 0 0 0 0 0 0 0 0 0 0 0 0 0 0 0 0 0 0 0 0 0 0 0 0 0 0 0 0 0 0 0 0 0 0 0 0 0 0 0 0 0
1 1 1 0 1 1 0 0 0 0 0 0 0 0 0 0 0 0 0 0 0 0 0 0 0 0 0 0 0 0 0 0 0 0 0 0 0 0 0 0 0 0 0 0
4 3 3 2 3 2 1 0 0 0 0 0 0 0 0 0 0 0 0 0 0 0 0 0 0 0 0 0 0 0 0 0 0 0 0 0 0 0 0 0 0 0 0 0
7 6 5 5 5 4 1 0 0 0 0 0 0 0 0 0 0 0 0 0 0 0 0 0 0 0 0 0 0 0 0 0 0 0 0 0 0 0 0 0 0 0 0 0
13 11 10 10 9 6 5 3 2 0 0 0 0 0 0 0 0 0 0 0 0 0 0 0 0 0 0 0 0 0 0 0 0 0 0 0 0 0 0 0 0 0 0 0
23 21 21 22 21 15 10 6 3 0 0 0 0 0 0 0 0 0 0 0 0 0 0 0 0 0 0 0 0 0 0 0 0 0 0 0 0 0 0 0 0 0 0 0
25 27 30 32 29 20 10 5 2 1 1 1 1 0 0 0 0 0 0 0 0 0 0 0 0 0 0 0 0 0 0 0 0 0 0 0 0 0 0 0 0 0 0 0
20 25 32 31 24 16 8 2 1 1 1 2 1 0 0 0 0 0 0 0 0 0 0 0 0 0 0 0 0 0 0 0 0 0 0 0 0 0 0 0 0 0 0 0
Wind_Speed
5 4 4 5 6 8 8 9 10 12 11 13 13 13 13 13 12 11 12 12 12 11 10 10 10 10 11 11 11 12 12 12 11 10 10 10 9 9 9 8 10 8 8 8
8 5 4 3 3 6 8 10 11 11 10 12 12 12 13 12 11 11 13 13 13 13 12 11 11 11 12 11 11 12 12 13 11 11 11 10 10 10 9 8 8 8 8 8
7 4 6 2 3 6 9 10 10 9 10 12 13 13 13 10 11 12 13 13 13 13 12 11 11 11 12 12 12 12 12 12 12 11 12 11 12 11 10 9 8 8 8 9
8 6 5 5 7 7 8 9 8 8 10 11 12 12 8 10 11 12 13 13 13 12 12 12 12 11 11 13 13 12 12 12 12 11 12 11 10 10 9 8 8 8 8 9
6 7 2 7 6 7 8 7 9 9 10 12 12 12 6 12 12 11 12 12 11 12 12 11 12 12 13 13 13 13 13 12 13 12 12 12 11 10 8 8 8 8 8 8
7 9 6 6 6 6 6 2 10 11 11 12 12 9 9 12 12 12 12 11 11 12 12 11 11 12 13 14 13 13 13 13 13 12 12 12 10 9 8 7 8 8 7 6
7 8 3 7 8 7 6 6 9 10 9 10 9 8 10 11 11 11 11 11 11 11 11 10 11 12 13 13 13 13 13 13 12 11 11 10 8 7 7 7 6 6 6 5
4 6 5 7 7 6 5 4 6 7 8 8 8 9 10 10 10 11 11 12 12 11 10 10 11 11 13 13 13 13 13 13 12 11 11 9 8 7 7 6 6 5 4 4
4 4 4 4 5 5 3 4 5 6 7 8 9 10 10 10 10 10 11 11 11 11 11 11 11 11 13 13 12 13 13 12 11 11 9 8 7 7 5 4 3 3 3 2
2 0 2 2 4 3 3 3 4 5 6 7 8 9 10 9 9 9 10 10 10 11 12 12 12 12 12 12 12 12 13 12 10 9 9 7 5 5 4 4 4 3 3 2
3 2 3 1 3 2 3 2 3 4 5 6 7 8 9 8 8 9 9 10 10 10 11 12 12 12 12 11 11 12 12 11 10 9 7 6 5 4 4 3 3 4 4 3
2 3 2 2 3 3 1 2 2 4 5 6 7 8 8 8 8 8 9 9 9 10 11 12 12 12 11 11 11 11 11 10 8 7 6 6 5 3 3 2 1 2 3 3
0 1 2 2 2 2 0 1 2 2 3 5 5 6 7 7 7 8 9 10 10 11 11 11 12 12 11 11 11 11 10 9 7 7 7 6 5 4 2 0 1 1 2 2
4 1 1 1 1 1 1 2 2 3 2 3 4 5 6 7 8 8 9 9 10 10 10 11 12 12 12 12 11 11 10 8 7 6 7 6 5 5 3 2 1 1 2 2
4 3 3 2 2 2 2 2 3 3 3 3 4 5 6 7 8 8 8 8 9 9 10 11 11 12 12 12 11 10 9 7 7 7 6 6 5 5 4 4 3 1 1 2
4 4 4 3 3 3 3 3 3 4 3 3 4 4 5 6 7 7 8 8 9 10 9 10 11 12 12 12 11 8 7 8 8 7 6 6 6 6 5 4 3 3 2 1
6 6 6 5 4 4 4 3 3 3 3 3 3 4 5 6 7 7 8 8 8 7 7 9 10 12 11 10 11 8 7 7 9 7 6 6 6 6 6 5 4 3 3 2
5 5 5 5 5 4 4 3 2 2 1 2 2 3 4 5 6 7 7 8 7 7 7 9 10 12 10 9 9 8 7 6 6 6 6 6 7 6 5 4 4 4 2 1
4 4 5 4 4 3 3 3 2 2 1 0 2 2 3 4 5 6 7 7 6 7 8 10 11 10 10 10 11 7 7 7 6 6 6 6 6 6 5 5 5 4 4 3
3 3 4 4 4 4 4 3 3 2 2 2 2 2 3 4 4 5 6 5 3 5 7 8 9 8 9 10 13 8 7 7 7 6 6 5 5 6 5 5 5 5 4 4
3 3 4 5 5 5 5 4 4 4 4 3 3 3 3 3 4 4 5 4 3 5 7 8 5 7 8 10 12 7 6 6 6 6 6 5 5 6 6 6 5 5 5 5
3 4 5 5 5 5 5 5 5 6 5 5 5 4 3 4 4 4 3 1 2 4 5 5 5 7 10 12 7 5 5 5 5 5 5 5 5 6 6 6 6 6 5 5
4 4 5 5 5 5 6 7 7 6 6 6 6 5 4 3 3 4 3 1 2 3 5 4 5 8 12 9 6 5 5 6 6 5 5 5 5 5 5 6 5 5 5 5
6 5 6 6 6 7 7 8 8 6 7 6 6 5 4 4 4 4 1 4 2 2 4 1 3 8 10 5 4 4 5 5 6 6 5 5 5 6 6 6 6 6 6 7
8 7 7 7 7 7 7 7 8 8 9 7 8 7 7 5 4 2 1 1 3 3 3 2 4 6 5 5 4 4 4 5 5 6 6 6 6 6 6 6 6 6 6 6
8 8 7 7 6 6 7 8 8 8 8 8 7 6 6 5 5 4 3 3 3 3 4 2 1 3 3 4 5 5 4 3 4 4 6 5 6 6 6 7 8 7 6 6
9 8 6 7 7 8 8 8 8 8 7 7 7 6 6 6 5 5 4 3 3 3 2 2 1 2 2 3 4 4 4 5 5 5 5 5 5 5 6 7 6 7 7 8
Wind_Direction
329 337 360 11 14 14 10 2 348 347 356 27 14 1 356 351 348 353 357 353 351 347 346 342 338 333 332 331 331 327 320 316 314 313 310 306 304 298 292 288 284 281 278 272
313 315 318 323 14 8 3 359 346 340 3 19 2 354 348 346 355 1 354 349 348 345 343 340 337 336 335 332 329 323 317 313 312 310 308 303 300 295 292 288 284 282 279 274
310 298 297 354 42 14 2 352 344 353 3 358 351 351 348 3 13 360 351 347 346 343 340 337 335 335 334 328 322 319 314 312 312 313 311 308 307 307 302 297 290 281 275 271
300 306 316 91 64 36 359 346 8 16 3 354 353 344 12 37 15 357 351 347 345 340 337 335 337 340 332 326 321 318 317 317 317 316 314 311 307 303 300 299 291 282 278 273
309 317 45 107 63 20 348 359 33 10 357 353 351 330 40 29 10 360 353 348 342 338 336 336 340 337 329 324 322 323 324 323 321 317 313 310 307 305 301 295 289 282 278 268
303 312 329 76 52 8 316 90 28 8 358 351 350 339 353 4 1 358 353 346 341 340 337 338 339 335 328 326 328 329 327 322 319 316 312 309 306 304 300 293 287 284 277 272
295 299 46 50 24 351 343 11 358 359 356 353 355 337 340 352 358 354 349 345 345 341 339 341 337 334 329 329 331 328 324 320 319 316 311 305 306 305 302 297 291 287 282 278
292 305 50 28 19 32 28 356 353 354 355 352 341 339 347 353 353 350 348 348 345 341 341 340 339 337 331 332 330 327 325 322 320 319 318 319 316 312 308 303 301 300 296 289
6 19 95 59 57 68 37 360 356 350 351 347 342 344 348 352 351 349 347 347 344 341 339 339 340 338 332 330 330 329 326 323 321 322 321 319 319 320 319 321 321 321 317 302
304 19 71 70 78 66 44 16 350 352 350 347 343 344 348 349 350 347 346 347 344 341 339 340 340 336 332 331 333 330 327 325 325 325 327 331 333 332 341 345 341 338 338 338
251 270 285 103 81 55 53 7 346 351 346 348 344 345 347 347 351 346 346 346 343 341 339 340 337 335 335 337 336 333 328 328 330 329 330 330 338 347 348 17 358 335 339 346
334 41 321 43 75 71 48 331 337 336 338 345 349 349 347 349 350 347 346 342 342 342 340 338 337 336 338 340 337 333 328 330 331 330 330 332 333 351 28 12 4 357 354 350
124 60 51 85 85 77 291 294 315 319 330 343 354 353 349 351 348 346 344 344 345 341 338 337 337 339 342 342 337 333 329 330 332 334 336 336 339 338 330 240 237 298 332 355
113 115 250 218 178 184 266 296 303 305 334 0 357 356 355 349 343 345 347 346 343 339 340 342 341 343 344 341 337 334 333 335 337 337 338 340 343 342 346 347 335 183 211 238
167 195 230 199 178 195 220 253 278 303 334 356 0 1 354 344 343 345 349 346 342 341 346 345 343 345 343 338 337 334 335 339 340 335 333 341 345 351 355 359 359 11 125 173
208 217 226 213 212 230 242 254 277 301 326 347 357 359 350 342 343 346 350 350 345 344 345 344 346 345 340 338 337 331 332 334 333 334 339 351 353 355 353 355 1 12 26 38
218 225 233 239 236 232 241 249 267 297 325 350 1 354 347 342 342 348 347 346 341 339 348 350 349 342 336 343 342 335 336 338 338 341 353 357 355 357 355 351 358 10 24 24
218 229 229 231 243 238 230 233 239 260 298 343 344 351 342 336 341 343 339 335 334 341 2 355 349 333 334 352 344 330 331 338 347 351 354 358 350 347 351 357 6 9 4 5
213 222 225 218 224 217 217 218 222 226 216 302 320 331 322 327 340 335 331 326 335 348 357 348 334 329 342 360 348 325 337 347 350 351 353 353 349 356 4 7 10 8 8 7
222 221 219 211 210 210 211 205 205 212 209 220 256 285 300 317 323 320 319 318 7 7 338 330 326 340 346 352 340 324 339 348 347 350 356 357 356 356 2 10 12 4 2 12
235 231 231 228 217 208 206 203 208 219 216 222 242 260 281 295 300 305 306 318 36 24 327 308 326 353 348 335 315 319 343 348 349 352 354 355 357 2 8 14 17 14 8 9
263 249 243 239 228 216 204 203 215 226 223 226 239 247 260 270 280 287 278 312 21 28 323 336 10 354 334 321 313 335 353 357 355 356 359 360 3 6 11 17 17 18 12 4
285 272 261 251 238 228 214 212 218 225 230 232 236 239 248 275 288 291 298 64 38 6 313 354 355 330 325 317 323 353 6 3 358 359 0 -0 5 9 11 13 19 20 12 11
294 279 269 262 250 236 228 222 220 220 227 230 228 217 216 238 241 240 216 132 137 307 307 29 309 315 314 307 333 4 12 9 2 356 360 5 13 20 18 13 16 18 21 23
295 283 270 256 247 243 234 226 223 220 223 223 223 204 201 213 238 259 299 158 149 239 282 209 241 287 303 326 352 7 15 17 5 358 6 12 14 16 18 15 14 19 28 30
288 276 268 254 252 250 245 235 227 218 216 215 215 208 199 189 197 204 208 226 218 229 270 273 250 262 321 350 4 4 3 9 4 10 16 16 19 21 20 14 15 20 30 30
279 271 260 256 252 248 251 251 246 236 220 213 212 201 192 188 194 202 204 219 227 229 257 292 318 340 3 9 14 7 8 15 13 10 17 22 19 19 18 18 21 24 29 38